Regional Weather Roundup
Issued by NWS

Home | Current Version | Previous Version | Graphics & Text | Print | Product List | Glossary On
Versions: 1 2 3 4 5 6 7 8 9 10 11 12 13 14 15 16 17 18 19 20 21 22 23 24 25 26 27 28 29 30 31 32 33 34 35 36 37 38 39 40 41 42 43 44 45 46 47 48 49 50
000
ASUS43 KDMX 011504
RWRIA

WEATHER ROUNDUP FOR IOWA
NATIONAL WEATHER SERVICE DES MOINES IA
  ISSUED BY NWS QUAD CITIES IA IL
900 AM CST SUN FEB 01 2015

NOTE: "FAIR" INDICATES FEW OR NO CLOUDS BELOW 12,000 FEET WITH NO
SIGNIFICANT WEATHER AND/OR OBSTRUCTIONS TO VISIBILITY.

* - THESE STATIONS ARE NOT NWS STATIONS...THUS NOT UNDER NWS
QUALITY CONTROL.  THEY ALSO DO NOT REPORT WEATHER SUCH
AS PRECIPITATION OR FOG.

IAZ001>003-012>014-020>022-031>034-043>046-011600-
   NORTHWEST IOWA

CITY           SKY/WX    TMP DP  RH WIND       PRES   REMARKS
CARROLL *      SNOW      19  18  93 N32G38    29.91R VSB 1/2 WCI   0
CHEROKEE *     LGT SNOW  16  14  91 N23G32    30.03R VSB 3/4 WCI  -2
DENNISON *     HVY RAIN  18  18 100 N24G33    29.92R VSB 1/2 WCI   0
LE MARS *      SNOW      14  12  92 N26G37    30.11R VSB 1/2 WCI  -6
ORANGE CITY *  LGT SNOW  14  10  85 N18G30    30.09R VSB 3/4 WCI  -3
SIOUX CITY     SNOW      17  12  80 N29G39    30.08R VSB 1/2 WCI  -2
SPENCER        SNOW      16  10  77 N29G38    30.06R VSB 1/2 WCI  -4
$$

IAZ055>058-069>071-079>083-090>094-011600-
   SOUTHWEST IOWA

CITY           SKY/WX    TMP DP  RH WIND       PRES   REMARKS
ATLANTIC *     MIX PCPN  23  21  93 N25G35    29.85R VSB 3/4 WCI   7
AUDUBON *      LGT SNOW  21  18  86 N21G28    29.88R VSB 3/4 WCI   6
CLARINDA *     LGT RAIN  30  30 100 N22G36    29.81R WCI  17
COUNCIL BLFS * LGT SNOW  21  21 100 N22G29    29.91R WCI   5
CRESTON *      LGT RAIN  32  32 100 N15       29.77R VSB 1   WCI  22
HARLAN *       SNOW      21  21 100 N23G38    29.93R VSB 1/2 WCI   5
LAMONI         LGT SNOW  32  31  96 N8        29.74R VSB 1   WCI  25
$$

IAZ047>049-059>061-072>074-084-011600-
   CENTRAL IOWA

CITY           SKY/WX    TMP DP  RH WIND       PRES   REMARKS
AMES           LGT SNOW  24  21  88 NE18G30   29.87R VSB 1   WCI  10
ANKENY *       LGT SNOW  28  28 100 MISG      29.84R VSB 3/4
BOONE *        FOG       25  25 100 MISG      29.86R VSB 1/2
CHARITON *     LGT SNOW  32  32 100 NE9       29.75S WCI  24
DES MOINES     SNOW      31  28  89 NE18G25   29.81R VSB 1/2 WCI  19
GRINNELL *     LGT SNOW  28  27  96 NE18      29.81S VSB 3/4 WCI  15
KNOXVILLE *    SNOW      32  30  93 NE12      29.76S VSB 1/2 WCI  23
MARSHALLTOWN   SNOW      21  19  92 NE28G38   29.85R VSB 1/4 WCI   3
PELLA *        HVY RAIN  32  32 100 NE6       29.80R WCI  26
PERRY *        LGT SNOW  28  27  97 NE14G21   29.86R VSB 3/4 WCI  16
$$

IAZ004>006-015-016-023>025-035-036-011600-
   NORTH CENTRAL IOWA

CITY           SKY/WX    TMP DP  RH WIND       PRES   REMARKS
ALGONA *       SNOW      16  14  93 N30G37    30.02R VSB 1/4 WCI  -4
CLARION *      SNOW      19  19 100 NE24G35   29.95R VSB 1/4 WCI   2
ESTHERVILLE    FOG       14  11  87 N25G36    30.07R VSB 1/2 WCI  -5
FORT DODGE *   CLOUDY    19  16  86 CALM      29.97R VSB 1
MASON CITY     SNOW      17  14  88 NE26G33   30.00R VSB 1/2 WCI  -2
WEBSTER CITY * CLOUDY    21  21 100 NE20G33   29.92R FOG     WCI   6
IOWA FALLS *   SNOW      20  17  88 NE20G31   29.91R VSB 1/2 WCI   4
$$

IAZ007>011-017>019-026>030-037>042-050>054-066-011600-
   NORTHEAST IOWA

CITY           SKY/WX    TMP DP  RH WIND       PRES   REMARKS
CEDAR RAPIDS   LGT SNOW  25  24  96 NE25G32   29.84R VSB 1   WCI   9
CHARLES CITY * SNOW      16  14  93 NE23G33   29.97S VSB 1/2 WCI  -2
CLINTON *      CLOUDY   N/A N/A N/A NE28G36   29.86F VSB 3/4
DECORAH *      LGT SNOW  14  12  92 NE13G23   30.00S VSB 1   WCI   0
DUBUQUE        SNOW      18  15  88 NE23G33   29.90F VSB 1/2 WCI   0
MONTICELLO *   LGT SNOW  19  19 100 NE18G29   29.90R WCI   4
OELWEIN *      SNOW      18  14  86 NE26G33   29.91S VSB 1/2 WCI  -1
WATERLOO       SNOW      18  16  92 NE28G35   29.92S VSB 1/2 WCI  -1
$$

IAZ064-065-067-068-078-011600-
   EAST CENTRAL IOWA

CITY           SKY/WX    TMP DP  RH WIND       PRES   REMARKS
DAVENPORT      SNOW      29  26  89 NE22G29   29.83F VSB 1/2 WCI  15
IOWA CITY      LGT SNOW  29  27  92 NE22G29   29.83F VSB 1   WCI  15
MT. PLEASANT * LGT SNOW  32  32 100 NE9       29.76F WCI  24
MUSCATINE *    LGT SNOW  34  32  93 NE17      29.81S WCI  23
QUAD CITIES    SNOW      31  29  92 NE23G31   29.81F VSB 1/2 WCI  18
$$

IAZ062-063-075>077-085>089-095>099-011600-
   SOUTHEAST IOWA

CITY           SKY/WX    TMP DP  RH WIND       PRES   REMARKS
BURLINGTON     CLOUDY    33  32  96 E8        29.75F FOG     WCI  26
FAIRFIELD *    LGT SNOW  32  32 100 NE10      29.76F VSB 1   WCI  24
FORT MADISON * LGT SNOW  32  32 100 NE5       29.76F VSB 3/4 WCI  27
KEOKUK *       LGT SNOW  32  32 100 NE5       29.74F VSB 1   WCI  27
OTTUMWA        LGT SNOW  32  32 100 NE13      29.76F FOG     WCI  22
WASHINGTON *   LGT SNOW  32  32 100 NE17      29.77F VSB 3/4 WCI  21
$$

ABBREVIATIONS USED IN REMARKS
   TC - TEMPERATURES IN CELSIUS
  WCI - WIND CHILL INDEX
   HX - HEAT INDEX
  VSB - VISIBILITY
$$



USA.gov is the U.S. government's official web portal to all federal, state and local government web resources and services.